,,,PA_Meas_PMT16A,,PR_Meas_QMR101_102,,RH_Meas_QMH101,,SR_Meas_QMS101,,TA_Meas_QMH101,,GenWind,,GenWind,
date,time,status,PA,status,PR,status,RH,status,SR,status,TA,status,DirAvg,status,SpdAvg,
2014-01-05, 00:00:04,VALID,1009.82,VALID,0,VALID,104,VALID,0,VALID,24.2768,VALID,283,VALID,0,
2014-01-05, 00:01:04,VALID,1009.81,VALID,0,VALID,104,VALID,0,VALID,24.2981,VALID,283,VALID,0,
2014-01-05, 00:02:04,VALID,1009.78,VALID,0,VALID,104,VALID,0,VALID,24.3176,VALID,283,VALID,0,
2014-01-05, 00:03:04,VALID,1009.77,VALID,0,VALID,104,VALID,0,VALID,24.3566,VALID,283,VALID,0,
2014-01-05, 00:04:04,VALID,1009.8,VALID,0,VALID,104,VALID,0,VALID,24.3761,VALID,284,VALID,0,
2014-01-05, 00:05:04,VALID,1009.75,VALID,0,VALID,104,VALID,0,VALID,24.3761,VALID,284,VALID,0,
2014-01-05, 00:06:04,VALID,1009.78,VALID,0,VALID,104,VALID,0,VALID,24.3547,VALID,283,VALID,0,
2014-01-05, 00:07:04,VALID,1009.8,VALID,0,VALID,104,VALID,0,VALID,24.3547,VALID,283,VALID,0,
2014-01-05, 00:08:04,VALID,1009.77,VALID,0,VALID,104,VALID,0,VALID,24.3742,VALID,283,VALID,0,
2014-01-05, 00:09:04,VALID,1009.73,VALID,0,VALID,104,VALID,0,VALID,24.3761,VALID,283,VALID,0,
2014-01-05, 00:10:04,VALID,1009.73,VALID,0,VALID,104,VALID,0,VALID,24.3761,VALID,284,VALID,0,
2014-01-05, 00:11:04,VALID,1009.72,VALID,0,VALID,104,VALID,0,VALID,24.3761,VALID,283,VALID,0,
2014-01-05, 00:12:04,VALID,1009.72,VALID,0,VALID,104,VALID,0,VALID,24.3761,VALID,284,VALID,0,
2014-01-05, 00:13:04,VALID,1009.73,VALID,0,VALID,104,VALID,0,VALID,24.3352,VALID,284,VALID,0,
2014-01-05, 00:14:04,VALID,1009.72,VALID,0,VALID,104,VALID,0,VALID,24.3761,VALID,283,VALID,0,
2014-01-05, 00:15:04,VALID,1009.72,VALID,0,VALID,104,VALID,0,VALID,24.3566,VALID,284,VALID,0,
2014-01-05, 00:16:04,VALID,1009.71,VALID,0,VALID,104,VALID,0,VALID,24.3566,VALID,283,VALID,0,
2014-01-05, 00:17:04,VALID,1009.65,VALID,0,VALID,104,VALID,0,VALID,24.3371,VALID,284,VALID,0,
2014-01-05, 00:18:04,VALID,1009.63,VALID,0,VALID,104,VALID,0,VALID,24.3371,VALID,284,VALID,0,
2014-01-05, 00:19:04,VALID,1009.62,VALID,0,VALID,104,VALID,0,VALID,24.2981,VALID,283,VALID,0,
2014-01-05, 00:20:04,VALID,1009.58,VALID,0,VALID,104,VALID,0.112112,VALID,24.2963,VALID,284,VALID,0,
2014-01-05, 00:21:04,VALID,1009.57,VALID,0,VALID,104,VALID,0,VALID,24.2981,VALID,283,VALID,0,
2014-01-05, 00:22:04,VALID,1009.58,VALID,0,VALID,104,VALID,0,VALID,24.2591,VALID,283,VALID,0,
2014-01-05, 00:23:04,VALID,1009.54,VALID,0,VALID,104,VALID,0.112112,VALID,24.2786,VALID,283,VALID,0,
2014-01-05, 00:24:04,VALID,1009.55,VALID,0,VALID,104,VALID,0,VALID,24.2591,VALID,283,VALID,0,
2014-01-05, 00:25:04,VALID,1009.55,VALID,0,VALID,104,VALID,0,VALID,24.2591,VALID,283,VALID,0,
2014-01-05, 00:26:04,VALID,1009.52,VALID,0,VALID,104,VALID,0,VALID,24.2591,VALID,283,VALID,0,
2014-01-05, 00:27:04,VALID,1009.53,VALID,0,VALID,104,VALID,0,VALID,24.2591,VALID,283,VALID,0,
2014-01-05, 00:28:04,VALID,1009.52,VALID,0,VALID,104,VALID,0,VALID,24.2591,VALID,283,VALID,0,
2014-01-05, 00:29:04,VALID,1009.51,VALID,0,VALID,104,VALID,0,VALID,24.2591,VALID,283,VALID,0,
2014-01-05, 00:30:04,VALID,1009.5,VALID,0,VALID,104,VALID,0,VALID,24.2183,VALID,283,VALID,0,
2014-01-05, 00:31:04,VALID,1009.5,VALID,0,VALID,104,VALID,0,VALID,24.2183,VALID,283,VALID,0,
2014-01-05, 00:32:04,VALID,1009.5,VALID,0,VALID,104,VALID,0,VALID,24.2202,VALID,283,VALID,0,
2014-01-05, 00:33:04,VALID,1009.51,VALID,0,VALID,104,VALID,0,VALID,24.2202,VALID,283,VALID,0,
2014-01-05, 00:34:04,VALID,1009.5,VALID,0,VALID,104,VALID,0,VALID,24.1793,VALID,283,VALID,0,
2014-01-05, 00:35:04,VALID,1009.49,VALID,0,VALID,104,VALID,0,VALID,24.1812,VALID,283,VALID,0,
2014-01-05, 00:36:04,VALID,1009.5,VALID,0,VALID,104,VALID,0,VALID,24.1812,VALID,283,VALID,0,
2014-01-05, 00:37:04,VALID,1009.47,VALID,0,VALID,104,VALID,0,VALID,24.2007,VALID,283,VALID,0,
2014-01-05, 00:38:04,VALID,1009.44,VALID,0,VALID,104,VALID,0,VALID,24.1812,VALID,283,VALID,0,
2014-01-05, 00:39:04,VALID,1009.43,VALID,0,VALID,104,VALID,0.112112,VALID,24.2007,VALID,283,VALID,0,
2014-01-05, 00:40:04,VALID,1009.39,VALID,0,VALID,104,VALID,0.112112,VALID,24.2007,VALID,283,VALID,0,
2014-01-05, 00:41:04,VALID,1009.37,VALID,0,VALID,104,VALID,0,VALID,24.1812,VALID,283,VALID,0,
2014-01-05, 00:42:04,VALID,1009.35,VALID,0,VALID,104,VALID,0,VALID,24.1617,VALID,283,VALID,0,
2014-01-05, 00:43:04,VALID,1009.33,VALID,0,VALID,104,VALID,0,VALID,24.1422,VALID,283,VALID,0,
2014-01-05, 00:44:04,VALID,1009.34,VALID,0,VALID,104,VALID,0,VALID,24.1422,VALID,283,VALID,0,
2014-01-05, 00:45:04,VALID,1009.28,VALID,0,VALID,104,VALID,0,VALID,24.1422,VALID,283,VALID,0,
2014-01-05, 00:46:04,VALID,1009.28,VALID,0,VALID,104,VALID,0,VALID,24.1227,VALID,283,VALID,0,
2014-01-05, 00:47:04,VALID,1009.25,VALID,0,VALID,104,VALID,0,VALID,24.1032,VALID,283,VALID,0,
2014-01-05, 00:48:04,VALID,1009.19,VALID,0,VALID,104,VALID,0,VALID,24.0837,VALID,283,VALID,0,
2014-01-05, 00:49:04,VALID,1009.2,VALID,0,VALID,104,VALID,0,VALID,24.0837,VALID,283,VALID,0,
2014-01-05, 00:50:04,VALID,1009.17,VALID,0,VALID,104,VALID,0,VALID,24.0643,VALID,283,VALID,0,
2014-01-05, 00:51:04,VALID,1009.19,VALID,0,VALID,104,VALID,0,VALID,24.0643,VALID,283,VALID,0,
2014-01-05, 00:52:04,VALID,1009.18,VALID,0,VALID,104,VALID,0,VALID,24.0448,VALID,283,VALID,0,
2014-01-05, 00:53:04,VALID,1009.17,VALID,0,VALID,104,VALID,0,VALID,24.0448,VALID,283,VALID,0,
2014-01-05, 00:54:04,VALID,1009.18,VALID,0,VALID,104,VALID,0,VALID,24.0466,VALID,283,VALID,0,
2014-01-05, 00:55:04,VALID,1009.16,VALID,0,VALID,104,VALID,0,VALID,23.9845,VALID,283,VALID,0,
2014-01-05, 00:56:04,VALID,1009.17,VALID,0,VALID,104,VALID,0,VALID,24.0058,VALID,283,VALID,0,
2014-01-05, 00:57:04,VALID,1009.18,VALID,0,VALID,104,VALID,0,VALID,24.0058,VALID,283,VALID,0,
2014-01-05, 00:58:04,VALID,1009.16,VALID,0,VALID,104,VALID,0,VALID,23.9845,VALID,283,VALID,0,
2014-01-05, 00:59:04,VALID,1009.15,VALID,0,VALID,104,VALID,0,VALID,23.9845,VALID,283,VALID,0,
2014-01-05, 01:00:04,VALID,1009.14,VALID,0,VALID,104,VALID,0,VALID,23.965,VALID,283,VALID,0,
2014-01-05, 01:01:04,VALID,1009.11,VALID,0,VALID,104,VALID,0,VALID,23.965,VALID,283,VALID,0,
2014-01-05, 01:02:04,VALID,1009.11,VALID,0,VALID,104,VALID,0,VALID,23.9863,VALID,283,VALID,0,
2014-01-05, 01:03:04,VALID,1009.14,VALID,0,VALID,104,VALID,0.112112,VALID,23.9863,VALID,283,VALID,0,
2014-01-05, 01:04:04,VALID,1009.1,VALID,0,VALID,104,VALID,0.112112,VALID,23.9668,VALID,283,VALID,0,
2014-01-05, 01:05:04,VALID,1009.09,VALID,0,VALID,104,VALID,0,VALID,23.9668,VALID,283,VALID,0,
2014-01-05, 01:06:04,VALID,1009.09,VALID,0,VALID,104,VALID,0,VALID,23.9668,VALID,283,VALID,0,
2014-01-05, 01:07:04,VALID,1009.08,VALID,0,VALID,104,VALID,0,VALID,23.965,VALID,283,VALID,0,
2014-01-05, 01:08:04,VALID,1009.08,VALID,0,VALID,104,VALID,0,VALID,23.9863,VALID,283,VALID,0,
2014-01-05, 01:09:04,VALID,1009.08,VALID,0,VALID,104,VALID,0.112112,VALID,23.9668,VALID,283,VALID,0,
2014-01-05, 01:10:04,VALID,1009.09,VALID,0,VALID,104,VALID,0,VALID,23.9455,VALID,283,VALID,0,
2014-01-05, 01:11:04,VALID,1009.09,VALID,0,VALID,104,VALID,0,VALID,23.9473,VALID,283,VALID,0,
2014-01-05, 01:12:04,VALID,1009.05,VALID,0,VALID,104,VALID,0.112112,VALID,23.9473,VALID,283,VALID,0,
2014-01-05, 01:13:04,VALID,1009.07,VALID,0,VALID,104,VALID,0,VALID,23.9473,VALID,283,VALID,0,
2014-01-05, 01:14:04,VALID,1009.09,VALID,0,VALID,104,VALID,0,VALID,23.9278,VALID,283,VALID,0,
2014-01-05, 01:15:04,VALID,1009.09,VALID,0,VALID,104,VALID,0,VALID,23.8871,VALID,283,VALID,0,
2014-01-05, 01:16:04,VALID,1009.11,VALID,0,VALID,104,VALID,0,VALID,23.9084,VALID,283,VALID,0,
2014-01-05, 01:17:04,VALID,1009.1,VALID,0,VALID,104,VALID,0,VALID,23.8871,VALID,283,VALID,0,
2014-01-05, 01:18:04,VALID,1009.1,VALID,0,VALID,104,VALID,0,VALID,23.8889,VALID,283,VALID,0,
2014-01-05, 01:19:04,VALID,1009.1,VALID,0,VALID,104,VALID,0,VALID,23.8889,VALID,283,VALID,0,
2014-01-05, 01:20:04,VALID,1009.07,VALID,0,VALID,104,VALID,0,VALID,23.8694,VALID,283,VALID,0,
2014-01-05, 01:21:04,VALID,1009.04,VALID,0,VALID,104,VALID,0,VALID,23.8694,VALID,283,VALID,0,
2014-01-05, 01:22:04,VALID,1009.06,VALID,0,VALID,104,VALID,0,VALID,23.8499,VALID,283,VALID,0,
2014-01-05, 01:23:04,VALID,1009.01,VALID,0,VALID,104,VALID,0,VALID,23.8304,VALID,283,VALID,0,
2014-01-05, 01:24:04,VALID,1008.99,VALID,0,VALID,104,VALID,0,VALID,23.8091,VALID,283,VALID,0,
2014-01-05, 01:25:04,VALID,1008.97,VALID,0,VALID,104,VALID,0,VALID,23.8304,VALID,283,VALID,0,
2014-01-05, 01:26:04,VALID,1008.97,VALID,0,VALID,104,VALID,0,VALID,23.8109,VALID,283,VALID,0,
2014-01-05, 01:27:04,VALID,1008.99,VALID,0,VALID,104,VALID,0,VALID,23.8109,VALID,283,VALID,0,
2014-01-05, 01:28:04,VALID,1008.98,VALID,0,VALID,104,VALID,0,VALID,23.8109,VALID,283,VALID,0,
2014-01-05, 01:29:04,VALID,1009,VALID,0,VALID,104,VALID,0,VALID,23.8304,VALID,283,VALID,0,
2014-01-05, 01:30:04,VALID,1009,VALID,0,VALID,104,VALID,0,VALID,23.8499,VALID,283,VALID,0,
2014-01-05, 01:31:04,VALID,1009,VALID,0,VALID,104,VALID,0,VALID,23.8286,VALID,283,VALID,0,
2014-01-05, 01:32:04,VALID,1009.01,VALID,0,VALID,104,VALID,0,VALID,23.8694,VALID,283,VALID,0,
2014-01-05, 01:33:04,VALID,1009.01,VALID,0,VALID,104,VALID,0,VALID,23.8481,VALID,283,VALID,0,
2014-01-05, 01:34:04,VALID,1008.99,VALID,0,VALID,104,VALID,0,VALID,23.8694,VALID,283,VALID,0,
2014-01-05, 01:35:04,VALID,1008.96,VALID,0,VALID,104,VALID,0,VALID,23.8694,VALID,283,VALID,0,
2014-01-05, 01:36:04,VALID,1008.92,VALID,0,VALID,104,VALID,0,VALID,23.8499,VALID,283,VALID,0,
2014-01-05, 01:37:04,VALID,1008.95,VALID,0,VALID,104,VALID,0,VALID,23.8304,VALID,283,VALID,0,
2014-01-05, 01:38:04,VALID,1008.92,VALID,0,VALID,104,VALID,0,VALID,23.8304,VALID,283,VALID,0,
2014-01-05, 01:39:04,VALID,1008.93,VALID,0,VALID,104,VALID,0,VALID,23.8499,VALID,284,VALID,0,
2014-01-05, 01:40:04,VALID,1008.94,VALID,0,VALID,104,VALID,0,VALID,23.8499,VALID,282,VALID,0,
2014-01-05, 01:41:04,VALID,1008.94,VALID,0,VALID,104,VALID,0,VALID,23.8499,VALID,283,VALID,0,
2014-01-05, 01:42:04,VALID,1008.91,VALID,0,VALID,104,VALID,0,VALID,23.8481,VALID,284,VALID,0,
2014-01-05, 01:43:04,VALID,1008.88,VALID,0,VALID,104,VALID,0,VALID,23.8694,VALID,284,VALID,0,
2014-01-05, 01:44:04,VALID,1008.88,VALID,0,VALID,104,VALID,0,VALID,23.8889,VALID,283,VALID,0,
2014-01-05, 01:45:04,VALID,1008.82,VALID,0,VALID,104,VALID,0,VALID,23.9084,VALID,283,VALID,0,
2014-01-05, 01:46:04,VALID,1008.83,VALID,0,VALID,104,VALID,0,VALID,23.8889,VALID,283,VALID,0,
2014-01-05, 01:47:04,VALID,1008.85,VALID,0,VALID,104,VALID,0,VALID,23.8889,VALID,283,VALID,0,
2014-01-05, 01:48:04,VALID,1008.86,VALID,0,VALID,104,VALID,0,VALID,23.9084,VALID,283,VALID,0,
2014-01-05, 01:49:04,VALID,1008.87,VALID,0,VALID,104,VALID,0,VALID,23.9084,VALID,283,VALID,0,
2014-01-05, 01:50:04,VALID,1008.82,VALID,0,VALID,104,VALID,0,VALID,23.9065,VALID,283,VALID,0,
2014-01-05, 01:51:04,VALID,1008.83,VALID,0,VALID,104,VALID,0,VALID,23.9278,VALID,283,VALID,0,
2014-01-05, 01:52:04,VALID,1008.86,VALID,0,VALID,104,VALID,0,VALID,23.9491,VALID,283,VALID,0,
2014-01-05, 01:53:04,VALID,1008.86,VALID,0,VALID,104,VALID,0,VALID,23.9473,VALID,283,VALID,0,
2014-01-05, 01:54:04,VALID,1008.84,VALID,0,VALID,104,VALID,0,VALID,23.9668,VALID,283,VALID,0,
2014-01-05, 01:55:04,VALID,1008.84,VALID,0,VALID,104,VALID,0,VALID,23.9863,VALID,283,VALID,0,
2014-01-05, 01:56:04,VALID,1008.79,VALID,0,VALID,104,VALID,0,VALID,24.0058,VALID,283,VALID,0,
2014-01-05, 01:57:04,VALID,1008.8,VALID,0,VALID,104,VALID,0,VALID,24.0058,VALID,283,VALID,0,
2014-01-05, 01:58:04,VALID,1008.8,VALID,0,VALID,104,VALID,0,VALID,24.0253,VALID,283,VALID,0,
2014-01-05, 01:59:04,VALID,1008.75,VALID,0,VALID,104,VALID,0,VALID,24.0253,VALID,283,VALID,0,
2014-01-05, 02:00:04,VALID,1008.77,VALID,0,VALID,104,VALID,0,VALID,24.0448,VALID,283,VALID,0,
2014-01-05, 02:01:04,VALID,1008.77,VALID,0,VALID,104,VALID,0,VALID,24.0643,VALID,283,VALID,0,
2014-01-05, 02:02:04,VALID,1008.72,VALID,0,VALID,104,VALID,0,VALID,24.0837,VALID,283,VALID,0,
2014-01-05, 02:03:04,VALID,1008.72,VALID,0,VALID,104,VALID,0,VALID,24.0429,VALID,283,VALID,0,
2014-01-05, 02:04:04,VALID,1008.7,VALID,0,VALID,104,VALID,0,VALID,24.0643,VALID,283,VALID,0,
2014-01-05, 02:05:04,VALID,1008.67,VALID,0,VALID,104,VALID,0,VALID,24.0837,VALID,283,VALID,0,
2014-01-05, 02:06:04,VALID,1008.65,VALID,0,VALID,104,VALID,0,VALID,24.1032,VALID,283,VALID,0,
2014-01-05, 02:07:04,VALID,1008.68,VALID,0,VALID,104,VALID,0,VALID,24.1032,VALID,283,VALID,0,
2014-01-05, 02:08:04,VALID,1008.66,VALID,0,VALID,104,VALID,0,VALID,24.1032,VALID,283,VALID,0,
2014-01-05, 02:09:04,VALID,1008.65,VALID,0,VALID,104,VALID,0,VALID,24.1227,VALID,283,VALID,0,
2014-01-05, 02:10:04,VALID,1008.64,VALID,0,VALID,104,VALID,0,VALID,24.1032,VALID,284,VALID,0,
2014-01-05, 02:11:04,VALID,1008.58,VALID,0,VALID,104,VALID,0,VALID,24.1227,VALID,283,VALID,0,
2014-01-05, 02:12:04,VALID,1008.54,VALID,0,VALID,104,VALID,0,VALID,24.1227,VALID,283,VALID,0,
2014-01-05, 02:13:04,VALID,1008.49,VALID,0,VALID,104,VALID,0,VALID,24.1032,VALID,283,VALID,0,
2014-01-05, 02:14:04,VALID,1008.45,VALID,0,VALID,104,VALID,0,VALID,24.1032,VALID,283,VALID,0,
2014-01-05, 02:15:04,VALID,1008.46,VALID,0,VALID,104,VALID,0,VALID,24.1032,VALID,283,VALID,0,
2014-01-05, 02:16:04,VALID,1008.44,VALID,0,VALID,104,VALID,0,VALID,24.144,VALID,283,VALID,0,
2014-01-05, 02:17:04,VALID,1008.42,VALID,0,VALID,104,VALID,0,VALID,24.1032,VALID,284,VALID,0,
2014-01-05, 02:18:04,VALID,1008.42,VALID,0,VALID,104,VALID,0,VALID,24.1032,VALID,283,VALID,0,
2014-01-05, 02:19:04,VALID,1008.43,VALID,0,VALID,104,VALID,0.112112,VALID,24.1227,VALID,283,VALID,0,
2014-01-05, 02:20:04,VALID,1008.41,VALID,0,VALID,104,VALID,0,VALID,24.1014,VALID,283,VALID,0,
2014-01-05, 02:21:04,VALID,1008.38,VALID,0,VALID,104,VALID,0,VALID,24.1032,VALID,283,VALID,0,
2014-01-05, 02:22:04,VALID,1008.39,VALID,0,VALID,104,VALID,0,VALID,24.1032,VALID,283,VALID,0,
2014-01-05, 02:23:04,VALID,1008.39,VALID,0,VALID,104,VALID,0,VALID,24.0837,VALID,283,VALID,0,
2014-01-05, 02:24:04,VALID,1008.43,VALID,0,VALID,104,VALID,0,VALID,24.0837,VALID,284,VALID,0,
2014-01-05, 02:25:04,VALID,1008.43,VALID,0,VALID,104,VALID,0,VALID,24.0837,VALID,283,VALID,0,
2014-01-05, 02:26:04,VALID,1008.45,VALID,0,VALID,104,VALID,0,VALID,24.0643,VALID,283,VALID,0,
2014-01-05, 02:27:04,VALID,1008.44,VALID,0,VALID,104,VALID,0,VALID,24.0643,VALID,282,VALID,0,
2014-01-05, 02:28:04,VALID,1008.45,VALID,0,VALID,104,VALID,0,VALID,24.0235,VALID,284,VALID,0,
2014-01-05, 02:29:04,VALID,1008.45,VALID,0,VALID,104,VALID,0,VALID,24.0235,VALID,283,VALID,0,
2014-01-05, 02:30:04,VALID,1008.44,VALID,0,VALID,104,VALID,0,VALID,24.0448,VALID,283,VALID,0,
2014-01-05, 02:31:04,VALID,1008.45,VALID,0,VALID,104,VALID,0,VALID,24.0448,VALID,283,VALID,0,
2014-01-05, 02:32:04,VALID,1008.46,VALID,0,VALID,104,VALID,0,VALID,24.0643,VALID,283,VALID,0,
2014-01-05, 02:33:04,VALID,1008.45,VALID,0,VALID,104,VALID,0,VALID,24.0429,VALID,283,VALID,0,
2014-01-05, 02:34:04,VALID,1008.46,VALID,0,VALID,104,VALID,0,VALID,24.0448,VALID,283,VALID,0,
2014-01-05, 02:35:04,VALID,1008.45,VALID,0,VALID,104,VALID,0,VALID,24.0643,VALID,283,VALID,0,
2014-01-05, 02:36:04,VALID,1008.47,VALID,0,VALID,104,VALID,0,VALID,24.0643,VALID,283,VALID,0,
2014-01-05, 02:37:04,VALID,1008.46,VALID,0,VALID,104,VALID,0,VALID,24.0837,VALID,283,VALID,0,
2014-01-05, 02:38:04,VALID,1008.44,VALID,0,VALID,104,VALID,0.112112,VALID,24.0624,VALID,283,VALID,0,
2014-01-05, 02:39:04,VALID,1008.44,VALID,0,VALID,104,VALID,0.112112,VALID,24.0643,VALID,283,VALID,0,
2014-01-05, 02:40:04,VALID,1008.4,VALID,0,VALID,104,VALID,0,VALID,24.0643,VALID,283,VALID,0,
2014-01-05, 02:41:04,VALID,1008.37,VALID,0,VALID,104,VALID,0,VALID,24.0837,VALID,283,VALID,0,
2014-01-05, 02:42:04,VALID,1008.38,VALID,0,VALID,104,VALID,0.112112,VALID,24.0429,VALID,283,VALID,0,
2014-01-05, 02:43:04,VALID,1008.34,VALID,0,VALID,104,VALID,0,VALID,24.0643,VALID,283,VALID,0,
2014-01-05, 02:44:04,VALID,1008.33,VALID,0,VALID,104,VALID,0,VALID,24.0448,VALID,283,VALID,0,
2014-01-05, 02:45:04,VALID,1008.28,VALID,0,VALID,104,VALID,0,VALID,24.0643,VALID,283,VALID,0,
2014-01-05, 02:46:04,VALID,1008.31,VALID,0,VALID,104,VALID,0,VALID,24.0235,VALID,283,VALID,0,
2014-01-05, 02:47:04,VALID,1008.28,VALID,0,VALID,104,VALID,0,VALID,24.0448,VALID,283,VALID,0,
2014-01-05, 02:48:04,VALID,1008.25,VALID,0,VALID,104,VALID,0,VALID,24.004,VALID,283,VALID,0,
2014-01-05, 02:49:04,VALID,1008.26,VALID,0,VALID,104,VALID,0,VALID,24.0058,VALID,283,VALID,0,
2014-01-05, 02:50:04,VALID,1008.23,VALID,0,VALID,104,VALID,0,VALID,24.0466,VALID,283,VALID,0,
2014-01-05, 02:51:04,VALID,1008.22,VALID,0,VALID,104,VALID,0,VALID,24.0058,VALID,283,VALID,0,
2014-01-05, 02:52:04,VALID,1008.2,VALID,0,VALID,104,VALID,0,VALID,24.0058,VALID,283,VALID,0,
2014-01-05, 02:53:04,VALID,1008.23,VALID,0,VALID,104,VALID,0,VALID,23.9863,VALID,283,VALID,0,
2014-01-05, 02:54:04,VALID,1008.21,VALID,0,VALID,104,VALID,0,VALID,23.9863,VALID,283,VALID,0,
2014-01-05, 02:55:04,VALID,1008.2,VALID,0,VALID,104,VALID,0,VALID,23.9668,VALID,283,VALID,0,
2014-01-05, 02:56:04,VALID,1008.19,VALID,0,VALID,104,VALID,0,VALID,23.9668,VALID,283,VALID,0,
2014-01-05, 02:57:04,VALID,1008.18,VALID,0,VALID,104,VALID,0,VALID,23.9668,VALID,283,VALID,0,
2014-01-05, 02:58:04,VALID,1008.17,VALID,0,VALID,104,VALID,0.112112,VALID,23.9668,VALID,283,VALID,0,
2014-01-05, 02:59:04,VALID,1008.18,VALID,0,VALID,104,VALID,0,VALID,23.9473,VALID,283,VALID,0,
2014-01-05, 03:00:04,VALID,1008.19,VALID,0,VALID,104,VALID,0.112112,VALID,23.9668,VALID,284,VALID,0,
2014-01-05, 03:01:04,VALID,1008.15,VALID,0,VALID,104,VALID,0,VALID,23.9473,VALID,283,VALID,0,
2014-01-05, 03:02:04,VALID,1008.15,VALID,0,VALID,104,VALID,0,VALID,23.926,VALID,283,VALID,0,
2014-01-05, 03:03:04,VALID,1008.19,VALID,0,VALID,104,VALID,0,VALID,23.926,VALID,284,VALID,0,
2014-01-05, 03:04:04,VALID,1008.19,VALID,0,VALID,104,VALID,0,VALID,23.9278,VALID,282,VALID,0,
2014-01-05, 03:05:04,VALID,1008.21,VALID,0,VALID,104,VALID,0,VALID,23.9065,VALID,284,VALID,0,
2014-01-05, 03:06:04,VALID,1008.19,VALID,0,VALID,104,VALID,0,VALID,23.9084,VALID,283,VALID,0,
2014-01-05, 03:07:04,VALID,1008.21,VALID,0,VALID,104,VALID,0,VALID,23.9084,VALID,283,VALID,0,
2014-01-05, 03:08:04,VALID,1008.21,VALID,0,VALID,104,VALID,0,VALID,23.9084,VALID,284,VALID,0,
2014-01-05, 03:09:04,VALID,1008.22,VALID,0,VALID,104,VALID,0,VALID,23.8889,VALID,283,VALID,0,
2014-01-05, 03:10:04,VALID,1008.21,VALID,0,VALID,104,VALID,0,VALID,23.8694,VALID,284,VALID,0,
2014-01-05, 03:11:04,VALID,1008.26,VALID,0,VALID,104,VALID,0,VALID,23.8694,VALID,284,VALID,0,
2014-01-05, 03:12:04,VALID,1008.24,VALID,0,VALID,104,VALID,0,VALID,23.8499,VALID,283,VALID,0,
2014-01-05, 03:13:04,VALID,1008.23,VALID,0,VALID,104,VALID,0,VALID,23.8304,VALID,283,VALID,0,
2014-01-05, 03:14:04,VALID,1008.25,VALID,0,VALID,104,VALID,0,VALID,23.8304,VALID,283,VALID,0,
2014-01-05, 03:15:04,VALID,1008.23,VALID,0,VALID,104,VALID,0,VALID,23.8109,VALID,283,VALID,0,
2014-01-05, 03:16:04,VALID,1008.23,VALID,0,VALID,104,VALID,0,VALID,23.8091,VALID,283,VALID,0,
2014-01-05, 03:17:04,VALID,1008.23,VALID,0,VALID,104,VALID,0,VALID,23.8091,VALID,284,VALID,0,
2014-01-05, 03:18:04,VALID,1008.24,VALID,0,VALID,104,VALID,0,VALID,23.8304,VALID,283,VALID,0,
2014-01-05, 03:19:04,VALID,1008.3,VALID,0,VALID,104,VALID,0,VALID,23.7896,VALID,284,VALID,0,
2014-01-05, 03:20:04,VALID,1008.32,VALID,0,VALID,104,VALID,0,VALID,23.8109,VALID,284,VALID,0,
2014-01-05, 03:21:04,VALID,1008.35,VALID,0,VALID,104,VALID,0,VALID,23.8304,VALID,283,VALID,0,
2014-01-05, 03:22:04,VALID,1008.35,VALID,0,VALID,104,VALID,0,VALID,23.8109,VALID,283,VALID,0,
2014-01-05, 03:23:04,VALID,1008.35,VALID,0,VALID,104,VALID,0,VALID,23.8304,VALID,283,VALID,0,
2014-01-05, 03:24:04,VALID,1008.37,VALID,0,VALID,104,VALID,0,VALID,23.8109,VALID,283,VALID,0,
2014-01-05, 03:25:04,VALID,1008.36,VALID,0,VALID,104,VALID,0,VALID,23.8109,VALID,283,VALID,0,
2014-01-05, 03:26:04,VALID,1008.39,VALID,0,VALID,104,VALID,0,VALID,23.7914,VALID,283,VALID,0,
2014-01-05, 03:27:04,VALID,1008.37,VALID,0,VALID,104,VALID,0,VALID,23.7914,VALID,284,VALID,0,
2014-01-05, 03:28:04,VALID,1008.38,VALID,0,VALID,104,VALID,0,VALID,23.7914,VALID,284,VALID,0,
2014-01-05, 03:29:04,VALID,1008.36,VALID,0,VALID,104,VALID,0,VALID,23.772,VALID,283,VALID,0,
2014-01-05, 03:30:04,VALID,1008.38,VALID,0,VALID,104,VALID,0,VALID,23.772,VALID,284,VALID,0,
2014-01-05, 03:31:04,VALID,1008.35,VALID,0,VALID,104,VALID,0,VALID,23.7525,VALID,283,VALID,0,
2014-01-05, 03:32:04,VALID,1008.33,VALID,0,VALID,104,VALID,0,VALID,23.7135,VALID,284,VALID,0,
2014-01-05, 03:33:04,VALID,1008.31,VALID,0,VALID,104,VALID,0,VALID,23.7135,VALID,283,VALID,0,
2014-01-05, 03:34:04,VALID,1008.3,VALID,0,VALID,104,VALID,0,VALID,23.6745,VALID,283,VALID,0,
2014-01-05, 03:35:04,VALID,1008.32,VALID,0,VALID,104,VALID,0,VALID,23.6745,VALID,283,VALID,0,
2014-01-05, 03:36:04,VALID,1008.33,VALID,0,VALID,104,VALID,0,VALID,23.6745,VALID,283,VALID,0,
2014-01-05, 03:37:04,VALID,1008.35,VALID,0,VALID,104,VALID,0,VALID,23.6338,VALID,283,VALID,0,
2014-01-05, 03:38:04,VALID,1008.35,VALID,0,VALID,104,VALID,0,VALID,23.655,VALID,283,VALID,0,
2014-01-05, 03:39:04,VALID,1008.36,VALID,0,VALID,104,VALID,0,VALID,23.655,VALID,283,VALID,0,
2014-01-05, 03:40:04,VALID,1008.37,VALID,0,VALID,104,VALID,0.112112,VALID,23.655,VALID,283,VALID,0,
2014-01-05, 03:41:04,VALID,1008.34,VALID,0,VALID,104,VALID,0,VALID,23.6356,VALID,283,VALID,0,
2014-01-05, 03:42:04,VALID,1008.35,VALID,0,VALID,104,VALID,0,VALID,23.655,VALID,283,VALID,0,
2014-01-05, 03:43:04,VALID,1008.34,VALID,0,VALID,104,VALID,0,VALID,23.655,VALID,283,VALID,0,
2014-01-05, 03:44:04,VALID,1008.33,VALID,0,VALID,104,VALID,0,VALID,23.655,VALID,283,VALID,0,
2014-01-05, 03:45:04,VALID,1008.33,VALID,0,VALID,104,VALID,0,VALID,23.655,VALID,283,VALID,0,
2014-01-05, 03:46:04,VALID,1008.32,VALID,0,VALID,104,VALID,0,VALID,23.6745,VALID,283,VALID,0,
2014-01-05, 03:47:04,VALID,1008.36,VALID,0,VALID,104,VALID,0,VALID,23.6727,VALID,283,VALID,0,
2014-01-05, 03:48:04,VALID,1008.36,VALID,0,VALID,104,VALID,0,VALID,23.694,VALID,283,VALID,0,
2014-01-05, 03:49:04,VALID,1008.37,VALID,0,VALID,104,VALID,0,VALID,23.6727,VALID,284,VALID,0,
2014-01-05, 03:50:04,VALID,1008.34,VALID,0,VALID,104,VALID,0,VALID,23.7135,VALID,283,VALID,0,
2014-01-05, 03:51:04,VALID,1008.34,VALID,0,VALID,104,VALID,0.112112,VALID,23.733,VALID,283,VALID,0,
2014-01-05, 03:52:04,VALID,1008.32,VALID,0,VALID,104,VALID,0,VALID,23.733,VALID,283,VALID,0,
2014-01-05, 03:53:04,VALID,1008.34,VALID,0,VALID,104,VALID,0,VALID,23.733,VALID,283,VALID,0,
2014-01-05, 03:54:04,VALID,1008.36,VALID,0,VALID,104,VALID,0,VALID,23.733,VALID,283,VALID,0,
2014-01-05, 03:55:04,VALID,1008.33,VALID,0,VALID,104,VALID,0,VALID,23.733,VALID,283,VALID,0,
2014-01-05, 03:56:04,VALID,1008.38,VALID,0,VALID,104,VALID,0,VALID,23.733,VALID,283,VALID,0,
2014-01-05, 03:57:04,VALID,1008.38,VALID,0,VALID,104,VALID,0,VALID,23.733,VALID,283,VALID,0,
2014-01-05, 03:58:04,VALID,1008.41,VALID,0,VALID,104,VALID,0,VALID,23.733,VALID,283,VALID,0,
2014-01-05, 03:59:04,VALID,1008.4,VALID,0,VALID,104,VALID,0,VALID,23.733,VALID,283,VALID,0,
2014-01-05, 04:00:04,VALID,1008.41,VALID,0,VALID,104,VALID,0,VALID,23.7135,VALID,283,VALID,0,
2014-01-05, 04:01:04,VALID,1008.44,VALID,0,VALID,104,VALID,0,VALID,23.7135,VALID,283,VALID,0,
2014-01-05, 04:02:04,VALID,1008.44,VALID,0,VALID,104,VALID,0,VALID,23.694,VALID,283,VALID,0,
2014-01-05, 04:03:04,VALID,1008.42,VALID,0,VALID,104,VALID,0,VALID,23.6745,VALID,283,VALID,0,
2014-01-05, 04:04:04,VALID,1008.42,VALID,0,VALID,104,VALID,0,VALID,23.6745,VALID,283,VALID,0,
2014-01-05, 04:05:04,VALID,1008.41,VALID,0,VALID,104,VALID,0,VALID,23.6745,VALID,283,VALID,0,
2014-01-05, 04:06:04,VALID,1008.42,VALID,0,VALID,104,VALID,0,VALID,23.6745,VALID,283,VALID,0,
2014-01-05, 04:07:04,VALID,1008.44,VALID,0,VALID,104,VALID,0,VALID,23.6745,VALID,283,VALID,0,
2014-01-05, 04:08:04,VALID,1008.46,VALID,0,VALID,104,VALID,0.112112,VALID,23.6745,VALID,284,VALID,0,